| time (UTC) | temp C | wind direction | speed KPH | gust KPH | rain 1hr cm | rain 24hr cm | rain mn cm | humidity % | barometer mb |
| 20260504021010 | 4 | 164 | 1.6 | 4.8 | 0.00 | 0.05 | 0.00 | 80 | 1019.9 |
| 20260504020512 | 4 | 113 | 1.6 | 4.8 | 0.00 | 0.05 | 0.00 | 79 | 1019.8 |
| 20260504020020 | 5 | 165 | 1.6 | 3.2 | 0.00 | 0.05 | 0.00 | 79 | 1019.8 |
| 20260504020011 | 5 | 165 | 1.6 | 3.2 | 0.00 | 0.05 | 0.00 | 79 | 1019.9 |
| 20260504015512 | 5 | 218 | 0.0 | 3.2 | 0.00 | 0.05 | 0.00 | 80 | 1019.8 |
| 20260504015021 | 4 | 248 | 0.0 | 4.8 | 0.00 | 0.05 | 0.00 | 80 | 1019.8 |
| 20260504014521 | 5 | 144 | 1.6 | 6.4 | 0.00 | 0.05 | 0.00 | 79 | 1019.9 |
| 20260504014511 | 5 | 144 | 1.6 | 6.4 | 0.00 | 0.05 | 0.00 | 79 | 1020.0 |
| 20260504014011 | 5 | 195 | 3.2 | 6.4 | 0.00 | 0.05 | 0.00 | 78 | 1019.9 |
| 20260504013510 | 5 | 155 | 0.0 | 3.2 | 0.00 | 0.05 | 0.00 | 78 | 1019.8 |
| 20260504013020 | 5 | 220 | 0.0 | 3.2 | 0.00 | 0.05 | 0.00 | 77 | 1019.8 |
| 20260504013012 | 5 | 220 | 0.0 | 3.2 | 0.00 | 0.05 | 0.00 | 77 | 1019.9 |
| 20260504012510 | 5 | 230 | 0.0 | 4.8 | 0.00 | 0.05 | 0.00 | 77 | 1019.8 |
| 20260504012010 | 5 | 185 | 1.6 | 4.8 | 0.00 | 0.05 | 0.00 | 77 | 1019.8 |
| 20260504011520 | 5 | 153 | 1.6 | 4.8 | 0.00 | 0.05 | 0.00 | 77 | 1019.8 |
| 20260504011511 | 5 | 153 | 0.0 | 4.8 | 0.00 | 0.05 | 0.00 | 77 | 1019.9 |
| 20260504011010 | 5 | 126 | 0.0 | 4.8 | 0.00 | 0.05 | 0.00 | 77 | 1019.6 |
| 20260504010511 | 5 | 155 | 1.6 | 6.4 | 0.00 | 0.05 | 0.00 | 77 | 1019.7 |
| 20260504010020 | 5 | 227 | 1.6 | 6.4 | 0.00 | 0.05 | 0.00 | 78 | 1019.7 |
| 20260504010011 | 5 | 227 | 0.0 | 6.4 | 0.00 | 0.05 | 0.00 | 78 | 1019.7 |
| 20260504005521 | 5 | 156 | 1.6 | 4.8 | 0.00 | 0.05 | 0.00 | 78 | 1019.7 |
| 20260504005011 | 5 | 202 | 1.6 | 4.8 | 0.00 | 0.05 | 0.00 | 78 | 1019.6 |
| 20260504004521 | 5 | 226 | 0.0 | 3.2 | 0.00 | 0.05 | 0.00 | 78 | 1019.7 |
| 20260504004514 | 5 | 226 | 0.0 | 3.2 | 0.00 | 0.05 | 0.00 | 78 | 1019.8 |
| 20260504004011 | 5 | 231 | 0.0 | 3.2 | 0.00 | 0.05 | 0.00 | 79 | 1019.7 |
| 20260504003511 | 5 | 230 | 1.6 | 4.8 | 0.00 | 0.05 | 0.00 | 79 | 1019.7 |
| 20260504003022 | 5 | 119 | 1.6 | 6.4 | 0.00 | 0.05 | 0.00 | 80 | 1019.7 |
| 20260504003011 | 5 | 119 | 0.0 | 6.4 | 0.00 | 0.05 | 0.00 | 80 | 1019.7 |
| 20260504002511 | 5 | 269 | 1.6 | 4.8 | 0.00 | 0.05 | 0.00 | 81 | 1019.7 |
| 20260504002011 | 5 | 153 | 0.0 | 3.2 | 0.00 | 0.05 | 0.00 | 81 | 1019.7 |
| 20260504001531 | 5 | 143 | 0.0 | 4.8 | 0.00 | 0.05 | 0.00 | 82 | 1019.8 |
| 20260504001521 | 5 | 143 | 0.0 | 4.8 | 0.00 | 0.05 | 0.00 | 82 | 1019.8 |
| 20260504001012 | 5 | 238 | 0.0 | 4.8 | 0.00 | 0.13 | 0.00 | 81 | 1019.8 |
| 20260504000512 | 5 | 116 | 1.6 | 3.2 | 0.00 | 0.13 | 0.00 | 81 | 1019.7 |
| 20260504000020 | 5 | 225 | 0.0 | 4.8 | 0.00 | 0.13 | 0.00 | 81 | 1019.8 |
| 20260504000011 | 5 | 225 | 0.0 | 4.8 | 0.00 | 0.13 | 0.00 | 81 | 1019.8 |
| 20260503235522 | 5 | 157 | 0.0 | 4.8 | 0.00 | 0.13 | 0.00 | 82 | 1019.7 |
| 20260503235011 | 5 | 217 | 0.0 | 3.2 | 0.00 | 0.13 | 0.00 | 82 | 1019.7 |
| 20260503234520 | 5 | 148 | 0.0 | 0.0 | 0.00 | 0.13 | 0.00 | 81 | 1019.7 |
| 20260503234511 | 5 | 148 | 0.0 | 0.0 | 0.00 | 0.13 | 0.00 | 81 | 1019.8 |
| 20260503234011 | 5 | 150 | 0.0 | 0.0 | 0.00 | 0.13 | 0.00 | 82 | 1019.7 |
| 20260503233511 | 5 | 234 | 0.0 | 1.6 | 0.00 | 0.13 | 0.00 | 82 | 1019.7 |
| 20260503233021 | 5 | 109 | 0.0 | 0.0 | 0.00 | 0.13 | 0.00 | 82 | 1019.8 |
| 20260503233017 | 5 | 109 | 0.0 | 0.0 | 0.00 | 0.13 | 0.00 | 82 | 1019.8 |
| 20260503232512 | 6 | 155 | 0.0 | 1.6 | 0.00 | 0.13 | 0.00 | 81 | 1019.9 |
| 20260503232013 | 6 | 169 | 0.0 | 1.6 | 0.00 | 0.13 | 0.00 | 80 | 1019.9 |
| 20260503231522 | 6 | 139 | 0.0 | 0.0 | 0.00 | 0.13 | 0.00 | 80 | 1019.8 |
| 20260503231511 | 6 | 139 | 0.0 | 0.0 | 0.00 | 0.13 | 0.00 | 80 | 1019.9 |
| 20260503231012 | 6 | 139 | 0.0 | 1.6 | 0.00 | 0.20 | 0.00 | 80 | 1019.8 |
| 20260503230513 | 6 | 139 | 0.0 | 1.6 | 0.00 | 0.20 | 0.00 | 79 | 1019.8 |
| 20260503230033 | 7 | 4 | 0.0 | 1.6 | 0.00 | 0.20 | 0.00 | 79 | 1019.9 |
| 20260503230025 | 7 | 4 | 0.0 | 1.6 | 0.00 | 0.20 | 0.00 | 79 | 1019.8 |
| 20260503225513 | 7 | 267 | 0.0 | 1.6 | 0.00 | 0.20 | 0.00 | 79 | 1019.8 |
| 20260503225012 | 7 | 257 | 0.0 | 1.6 | 0.00 | 0.20 | 0.00 | 78 | 1019.7 |
| 20260503224521 | 7 | 262 | 0.0 | 3.2 | 0.00 | 0.20 | 0.00 | 78 | 1019.5 |
| 20260503224513 | 7 | 262 | 0.0 | 3.2 | 0.00 | 0.20 | 0.00 | 78 | 1019.5 |
| 20260503224011 | 7 | 264 | 0.0 | 6.4 | 0.00 | 0.20 | 0.00 | 78 | 1019.5 |
| 20260503223511 | 7 | 232 | 1.6 | 4.8 | 0.00 | 0.20 | 0.00 | 79 | 1019.5 |
| 20260503223022 | 7 | 167 | 1.6 | 4.8 | 0.00 | 0.20 | 0.00 | 79 | 1019.5 |
| 20260503223012 | 7 | 165 | 0.0 | 4.8 | 0.00 | 0.20 | 0.00 | 79 | 1019.6 |
| 20260503222513 | 7 | 80 | 1.6 | 4.8 | 0.00 | 0.20 | 0.00 | 78 | 1019.4 |
| 20260503222013 | 7 | 146 | 0.0 | 6.4 | 0.00 | 0.20 | 0.00 | 78 | 1019.4 |
| 20260503221522 | 7 | 148 | 0.0 | 3.2 | 0.00 | 0.20 | 0.00 | 77 | 1019.5 |
| 20260503221511 | 7 | 148 | 0.0 | 3.2 | 0.00 | 0.20 | 0.00 | 77 | 1019.6 |
| 20260503221013 | 8 | 226 | 0.0 | 1.6 | 0.00 | 0.20 | 0.00 | 77 | 1019.5 |
| 20260503220513 | 8 | 165 | 0.0 | 1.6 | 0.00 | 0.20 | 0.00 | 76 | 1019.5 |
| 20260503220022 | 8 | 141 | 0.0 | 1.6 | 0.00 | 0.20 | 0.00 | 76 | 1019.5 |
| 20260503220012 | 8 | 141 | 0.0 | 1.6 | 0.00 | 0.20 | 0.00 | 76 | 1019.6 |
| 20260503215512 | 8 | 167 | 0.0 | 0.0 | 0.00 | 0.20 | 0.00 | 76 | 1019.6 |
| 20260503215023 | 8 | 200 | 0.0 | 1.6 | 0.00 | 0.20 | 0.00 | 76 | 1019.4 |
| 20260503214532 | 8 | 221 | 0.0 | 1.6 | 0.00 | 0.20 | 0.00 | 76 | 1019.4 |
| 20260503214012 | 8 | 146 | 0.0 | 1.6 | 0.00 | 0.20 | 0.00 | 75 | 1019.4 |
| 20260503213523 | 8 | 133 | 0.0 | 1.6 | 0.00 | 0.20 | 0.00 | 75 | 1019.4 |
| 20260503213021 | 8 | 152 | 0.0 | 1.6 | 0.00 | 0.20 | 0.00 | 75 | 1019.4 |
| 20260503213012 | 8 | 152 | 0.0 | 1.6 | 0.00 | 0.20 | 0.00 | 75 | 1019.5 |
| 20260503212512 | 8 | 248 | 0.0 | 1.6 | 0.00 | 0.20 | 0.00 | 75 | 1019.4 |
| 20260503212012 | 9 | 262 | 0.0 | 1.6 | 0.00 | 0.20 | 0.00 | 75 | 1019.5 |
| 20260503211532 | 9 | 250 | 0.0 | 1.6 | 0.00 | 0.20 | 0.00 | 74 | 1019.5 |
| 20260503211511 | 9 | 250 | 0.0 | 1.6 | 0.00 | 0.20 | 0.00 | 74 | 1019.5 |
| 20260503211023 | 9 | 250 | 0.0 | 1.6 | 0.00 | 0.20 | 0.00 | 73 | 1019.5 |
| 20260503210512 | 9 | 186 | 0.0 | 1.6 | 0.00 | 0.20 | 0.00 | 72 | 1019.5 |
| 20260503210022 | 10 | 180 | 0.0 | 0.0 | 0.00 | 0.20 | 0.00 | 72 | 1019.5 |
| 20260503210012 | 10 | 180 | 0.0 | 0.0 | 0.00 | 0.20 | 0.00 | 72 | 1019.5 |
| 20260503205523 | 10 | 170 | 0.0 | 0.0 | 0.00 | 0.20 | 0.00 | 71 | 1019.5 |
| 20260503205012 | 10 | 159 | 0.0 | 0.0 | 0.00 | 0.20 | 0.00 | 71 | 1019.4 |
| 20260503204521 | 10 | 159 | 0.0 | 0.0 | 0.00 | 0.20 | 0.00 | 72 | 1019.5 |
| 20260503204513 | 10 | 159 | 0.0 | 0.0 | 0.00 | 0.20 | 0.00 | 72 | 1019.6 |
| 20260503204013 | 10 | 161 | 0.0 | 3.2 | 0.00 | 0.20 | 0.00 | 72 | 1019.5 |
| 20260503203512 | 9 | 177 | 0.0 | 4.8 | 0.00 | 0.20 | 0.00 | 72 | 1019.5 |
| 20260503203033 | 9 | 215 | 1.6 | 4.8 | 0.00 | 0.20 | 0.00 | 74 | 1019.5 |
| 20260503203014 | 9 | 215 | 0.0 | 4.8 | 0.00 | 0.20 | 0.00 | 74 | 1019.5 |
| 20260503202512 | 8 | 171 | 3.2 | 4.8 | 0.00 | 0.20 | 0.00 | 74 | 1019.5 |
| 20260503202012 | 8 | 184 | 0.0 | 3.2 | 0.00 | 0.20 | 0.00 | 75 | 1019.4 |
| 20260503201522 | 8 | 150 | 1.6 | 4.8 | 0.00 | 0.20 | 0.00 | 75 | 1019.6 |
| 20260503201513 | 8 | 150 | 0.0 | 4.8 | 0.00 | 0.20 | 0.00 | 75 | 1019.6 |
| 20260503201012 | 8 | 207 | 1.6 | 6.4 | 0.00 | 0.20 | 0.00 | 75 | 1019.6 |
| 20260503200512 | 8 | 210 | 1.6 | 6.4 | 0.00 | 0.20 | 0.00 | 75 | 1019.6 |
| 20260503200022 | 8 | 141 | 1.6 | 6.4 | 0.00 | 0.20 | 0.00 | 75 | 1019.5 |
| 20260503200013 | 8 | 141 | 0.0 | 6.4 | 0.00 | 0.20 | 0.00 | 75 | 1019.6 |
| 20260503195524 | 8 | 229 | 1.6 | 6.4 | 0.00 | 0.20 | 0.00 | 75 | 1019.5 |
| 20260503195013 | 8 | 157 | 0.0 | 3.2 | 0.00 | 0.20 | 0.00 | 74 | 1019.5 |
| 20260503194523 | 9 | 235 | 0.0 | 3.2 | 0.00 | 0.20 | 0.00 | 73 | 1019.6 |
| 20260503194512 | 9 | 199 | 0.0 | 3.2 | 0.00 | 0.20 | 0.00 | 73 | 1019.7 |
| 20260503194025 | 9 | 225 | 0.0 | 3.2 | 0.00 | 0.20 | 0.00 | 72 | 1019.8 |
| 20260503193512 | 9 | 142 | 0.0 | 1.6 | 0.00 | 0.20 | 0.00 | 72 | 1019.6 |
| 20260503193023 | 9 | 135 | 0.0 | 3.2 | 0.00 | 0.20 | 0.00 | 72 | 1019.7 |
| 20260503192513 | 9 | 154 | 1.6 | 3.2 | 0.00 | 0.20 | 0.00 | 72 | 1019.5 |
| 20260503192014 | 9 | 176 | 0.0 | 3.2 | 0.00 | 0.20 | 0.00 | 73 | 1019.5 |
| 20260503191531 | 9 | 185 | 0.0 | 3.2 | 0.00 | 0.20 | 0.00 | 73 | 1019.6 |
| 20260503191524 | 9 | 185 | 1.6 | 3.2 | 0.00 | 0.20 | 0.00 | 73 | 1019.5 |
| 20260503191014 | 10 | 219 | 1.6 | 3.2 | 0.00 | 0.20 | 0.00 | 71 | 1019.5 |
| 20260503190514 | 10 | 191 | 0.0 | 3.2 | 0.00 | 0.20 | 0.00 | 70 | 1019.5 |
| 20260503190034 | 10 | 160 | 1.6 | 6.4 | 0.00 | 0.20 | 0.00 | 70 | 1019.5 |
| 20260503190024 | 10 | 160 | 0.0 | 6.4 | 0.00 | 0.20 | 0.00 | 70 | 1019.6 |
| 20260503185514 | 11 | 146 | 1.6 | 6.4 | 0.00 | 0.20 | 0.00 | 68 | 1019.3 |
| 20260503185014 | 11 | 174 | 1.6 | 4.8 | 0.00 | 0.20 | 0.00 | 67 | 1019.3 |
| 20260503184522 | 11 | 255 | 0.0 | 1.6 | 0.00 | 0.20 | 0.00 | 67 | 1019.2 |
| 20260503184513 | 11 | 255 | 0.0 | 1.6 | 0.00 | 0.20 | 0.00 | 67 | 1019.3 |
| 20260503184012 | 11 | 136 | 0.0 | 1.6 | 0.00 | 0.20 | 0.00 | 67 | 1019.1 |
| 20260503183514 | 11 | 136 | 0.0 | 1.6 | 0.00 | 0.20 | 0.00 | 67 | 1019.1 |
| 20260503183023 | 11 | 136 | 0.0 | 1.6 | 0.00 | 0.20 | 0.00 | 66 | 1019.0 |
| 20260503183012 | 11 | 136 | 0.0 | 1.6 | 0.00 | 0.20 | 0.00 | 66 | 1019.1 |
| 20260503182513 | 11 | 135 | 0.0 | 1.6 | 0.00 | 0.20 | 0.00 | 66 | 1018.8 |
| 20260503182014 | 11 | 253 | 1.6 | 3.2 | 0.00 | 0.20 | 0.00 | 66 | 1018.8 |
| 20260503181535 | 11 | 258 | 0.0 | 3.2 | 0.00 | 0.20 | 0.00 | 66 | 1018.7 |
| 20260503181513 | 11 | 258 | 0.0 | 3.2 | 0.00 | 0.20 | 0.00 | 66 | 1018.9 |
| 20260503181024 | 11 | 257 | 0.0 | 3.2 | 0.00 | 0.20 | 0.00 | 65 | 1018.6 |
| 20260503180526 | 11 | 132 | 0.0 | 3.2 | 0.00 | 0.20 | 0.00 | 65 | 1018.6 |
| 20260503180024 | 11 | 162 | 1.6 | 6.4 | 0.00 | 0.20 | 0.00 | 61 | 1018.6 |
| 20260503180013 | 11 | 162 | 0.0 | 6.4 | 0.00 | 0.20 | 0.00 | 61 | 1018.8 |
| 20260503175513 | 11 | 207 | 1.6 | 6.4 | 0.00 | 0.20 | 0.00 | 62 | 1018.5 |
| 20260503175014 | 11 | 205 | 1.6 | 8.0 | 0.00 | 0.20 | 0.00 | 63 | 1018.5 |
| 20260503174525 | 12 | 165 | 1.6 | 4.8 | 0.00 | 0.20 | 0.00 | 60 | 1018.4 |
| 20260503174513 | 12 | 165 | 0.0 | 4.8 | 0.00 | 0.20 | 0.00 | 60 | 1018.5 |
| 20260503174014 | 12 | 172 | 1.6 | 4.8 | 0.00 | 0.20 | 0.00 | 60 | 1018.4 |
| 20260503173514 | 12 | 240 | 1.6 | 4.8 | 0.00 | 0.20 | 0.00 | 58 | 1018.4 |
| 20260503173023 | 13 | 211 | 1.6 | 3.2 | 0.00 | 0.20 | 0.00 | 55 | 1018.2 |
| 20260503173013 | 13 | 211 | 0.0 | 3.2 | 0.00 | 0.20 | 0.00 | 55 | 1018.3 |
| 20260503172513 | 13 | 207 | 0.0 | 4.8 | 0.00 | 0.20 | 0.00 | 55 | 1018.1 |
| 20260503172014 | 13 | 236 | 1.6 | 4.8 | 0.00 | 0.20 | 0.00 | 53 | 1018.0 |
| 20260503171522 | 13 | 153 | 0.0 | 3.2 | 0.00 | 0.20 | 0.00 | 52 | 1018.0 |
| 20260503171513 | 13 | 153 | 0.0 | 3.2 | 0.00 | 0.20 | 0.00 | 52 | 1018.2 |
| 20260503171014 | 13 | 153 | 1.6 | 3.2 | 0.00 | 0.20 | 0.00 | 52 | 1017.9 |
| 20260503170526 | 14 | 176 | 1.6 | 3.2 | 0.00 | 0.20 | 0.00 | 49 | 1017.8 |
| 20260503151014 | 16 | 313 | 1.6 | 6.4 | 0.00 | 0.20 | 0.00 | 34 | 1017.4 |
| 20260503150514 | 16 | 20 | 1.6 | 9.7 | 0.00 | 0.20 | 0.00 | 32 | 1017.5 |
| 20260503131015 | 17 | 314 | 4.8 | 11.3 | 0.00 | 0.20 | 0.20 | 33 | 1018.3 |
| 20260503130515 | 17 | 293 | 3.2 | 12.9 | 0.00 | 0.20 | 0.20 | 31 | 1018.3 |
| 20260503110526 | 15 | 311 | 6.4 | 14.5 | 0.00 | 0.20 | 0.20 | 42 | 1019.1 |
| 20260503081526 | 13 | 41 | 1.6 | 3.2 | 0.00 | 0.20 | 0.20 | 45 | 1019.9 |
| 20260503081520 | 13 | 41 | 0.0 | 3.2 | 0.00 | 0.20 | 0.20 | 45 | 1020.0 |
| 20260503081016 | 13 | 355 | 1.6 | 4.8 | 0.00 | 0.20 | 0.20 | 44 | 1019.9 |
| 20260503080527 | 13 | 60 | 1.6 | 9.7 | 0.00 | 0.20 | 0.20 | 43 | 1019.8 |
| 20260503072518 | 12 | 57 | 8.0 | 12.9 | 0.00 | 0.20 | 0.20 | 45 | 1019.9 |
| 20260503072018 | 12 | 37 | 6.4 | 11.3 | 0.00 | 0.20 | 0.20 | 49 | 1019.8 |
| 20260503071537 | 12 | 91 | 1.6 | 9.7 | 0.00 | 0.20 | 0.20 | 63 | 1019.7 |
| 20260503071516 | 12 | 91 | 1.6 | 9.7 | 0.00 | 0.20 | 0.20 | 63 | 1019.8 |
| 20260503071016 | 12 | 111 | 4.8 | 9.7 | 0.00 | 0.20 | 0.20 | 54 | 1019.7 |
| 20260503070517 | 11 | 64 | 4.8 | 9.7 | 0.00 | 0.20 | 0.20 | 55 | 1019.7 |
| 20260503055017 | 10 | 258 | 1.6 | 6.4 | 0.00 | 0.20 | 0.20 | 74 | 1019.3 |
| 20260503054526 | 10 | 309 | 1.6 | 4.8 | 0.00 | 0.20 | 0.20 | 74 | 1019.4 |
| 20260503054517 | 10 | 309 | 1.6 | 4.8 | 0.00 | 0.20 | 0.20 | 74 | 1019.4 |
| 20260503054017 | 10 | 331 | 1.6 | 9.7 | 0.00 | 0.20 | 0.20 | 75 | 1019.4 |
| 20260503053517 | 9 | 290 | 6.4 | 9.7 | 0.00 | 0.20 | 0.20 | 74 | 1019.4 |
| 20260503053026 | 10 | 326 | 1.6 | 3.2 | 0.00 | 0.20 | 0.20 | 77 | 1019.4 |
| 20260503053020 | 10 | 326 | 0.0 | 3.2 | 0.00 | 0.20 | 0.20 | 77 | 1019.4 |
| 20260503052517 | 9 | 186 | 0.0 | 0.0 | 0.03 | 0.20 | 0.20 | 77 | 1019.2 |
| 20260503052017 | 9 | 186 | 0.0 | 1.6 | 0.03 | 0.20 | 0.20 | 77 | 1019.0 |
| 20260503051527 | 9 | 157 | 0.0 | 1.6 | 0.03 | 0.20 | 0.20 | 78 | 1019.1 |
| 20260503051517 | 9 | 157 | 0.0 | 1.6 | 0.03 | 0.20 | 0.20 | 78 | 1019.2 |
| 20260503051017 | 9 | 111 | 0.0 | 3.2 | 0.05 | 0.20 | 0.20 | 80 | 1019.0 |
| 20260503050517 | 9 | 116 | 0.0 | 1.6 | 0.05 | 0.20 | 0.20 | 81 | 1018.9 |
| 20260503050038 | 9 | 63 | 0.0 | 1.6 | 0.05 | 0.20 | 0.20 | 79 | 1018.8 |
| 20260503050017 | 9 | 63 | 0.0 | 1.6 | 0.05 | 0.20 | 0.20 | 79 | 1018.9 |
| 20260503045517 | 9 | 4 | 0.0 | 1.6 | 0.05 | 0.20 | 0.20 | 81 | 1018.8 |
| 20260503045017 | 8 | 41 | 0.0 | 1.6 | 0.05 | 0.20 | 0.20 | 83 | 1018.8 |
| 20260503044527 | 8 | 41 | 0.0 | 4.8 | 0.05 | 0.20 | 0.20 | 82 | 1018.8 |
| 20260503044517 | 8 | 41 | 0.0 | 4.8 | 0.05 | 0.20 | 0.20 | 82 | 1018.9 |
| 20260503044017 | 8 | 42 | 1.6 | 4.8 | 0.05 | 0.20 | 0.20 | 81 | 1018.7 |
| 20260503043518 | 8 | 12 | 0.0 | 3.2 | 0.05 | 0.20 | 0.20 | 80 | 1018.7 |
| 20260503043026 | 8 | 45 | 1.6 | 9.7 | 0.05 | 0.20 | 0.20 | 79 | 1018.6 |
| 20260503043018 | 8 | 45 | 0.0 | 9.7 | 0.05 | 0.20 | 0.20 | 79 | 1018.7 |
| 20260503042517 | 8 | 291 | 1.6 | 14.5 | 0.03 | 0.18 | 0.18 | 77 | 1018.6 |
| 20260503042017 | 8 | 289 | 6.4 | 14.5 | 0.03 | 0.18 | 0.18 | 75 | 1018.5 |
| 20260503041527 | 8 | 297 | 3.2 | 11.3 | 0.03 | 0.18 | 0.18 | 84 | 1018.8 |
| 20260503041518 | 8 | 297 | 1.6 | 11.3 | 0.03 | 0.18 | 0.18 | 84 | 1018.9 |
| 20260503041017 | 7 | 70 | 0.0 | 0.0 | 0.00 | 0.15 | 0.15 | 88 | 1018.6 |
| 20260503040518 | 7 | 70 | 0.0 | 0.0 | 0.00 | 0.15 | 0.15 | 89 | 1018.6 |
| 20260503040027 | 7 | 142 | 0.0 | 0.0 | 0.00 | 0.15 | 0.15 | 89 | 1018.5 |
| 20260503040017 | 7 | 142 | 0.0 | 0.0 | 0.00 | 0.15 | 0.15 | 89 | 1018.7 |
| 20260503035517 | 7 | 127 | 0.0 | 0.0 | 0.00 | 0.15 | 0.15 | 89 | 1018.3 |
| 20260503035017 | 7 | 225 | 0.0 | 1.6 | 0.00 | 0.15 | 0.15 | 89 | 1018.3 |
| 20260503034527 | 6 | 137 | 0.0 | 1.6 | 0.00 | 0.15 | 0.15 | 89 | 1018.3 |
| 20260503034518 | 6 | 137 | 0.0 | 1.6 | 0.00 | 0.15 | 0.15 | 89 | 1018.4 |
| 20260503034017 | 6 | 146 | 0.0 | 3.2 | 0.00 | 0.15 | 0.15 | 88 | 1018.2 |
| 20260503033518 | 6 | 147 | 0.0 | 3.2 | 0.00 | 0.15 | 0.15 | 88 | 1018.2 |
| 20260503033038 | 6 | 199 | 0.0 | 3.2 | 0.00 | 0.15 | 0.15 | 88 | 1018.2 |
| 20260503033018 | 6 | 199 | 0.0 | 3.2 | 0.00 | 0.15 | 0.15 | 88 | 1018.3 |
| 20260503032518 | 6 | 224 | 0.0 | 0.0 | 0.00 | 0.15 | 0.15 | 89 | 1018.1 |
| 20260503032018 | 6 | 222 | 0.0 | 1.6 | 0.00 | 0.15 | 0.15 | 88 | 1018.1 |
| 20260503031527 | 6 | 160 | 0.0 | 1.6 | 0.00 | 0.15 | 0.15 | 88 | 1018.1 |
| 20260503031518 | 6 | 160 | 0.0 | 1.6 | 0.00 | 0.15 | 0.15 | 88 | 1018.2 |
| 20260503030940 | 6 | 161 | 0.0 | 3.2 | 0.00 | 0.15 | 0.15 | 88 | 1018.1 |
| 20260503030440 | 6 | 161 | 0.0 | 3.2 | 0.00 | 0.15 | 0.15 | 88 | 1018.1 |
| 20260503030039 | 6 | 160 | 0.0 | 1.6 | 0.00 | 0.15 | 0.15 | 88 | 1018.3 |
| 20260503025949 | 6 | 169 | 0.0 | 1.6 | 0.00 | 0.15 | 0.15 | 88 | 1018.3 |
| 20260503025439 | 6 | 202 | 0.0 | 3.2 | 0.00 | 0.15 | 0.15 | 88 | 1018.3 |
| 20260503024939 | 6 | 198 | 0.0 | 3.2 | 0.00 | 0.15 | 0.15 | 87 | 1018.4 |
| 20260503024540 | 6 | 199 | 0.0 | 3.2 | 0.00 | 0.15 | 0.15 | 87 | 1018.6 |
| 20260503024449 | 6 | 199 | 0.0 | 3.2 | 0.00 | 0.15 | 0.15 | 87 | 1018.5 |
| 20260503023939 | 6 | 155 | 0.0 | 1.6 | 0.00 | 0.15 | 0.15 | 87 | 1018.5 |
| 20260503023451 | 6 | 130 | 0.0 | 1.6 | 0.00 | 0.15 | 0.15 | 87 | 1018.6 |
| 20260503023043 | 6 | 129 | 0.0 | 1.6 | 0.00 | 0.15 | 0.15 | 88 | 1018.7 |
| 20260503023001 | 6 | 117 | 0.0 | 1.6 | 0.00 | 0.15 | 0.15 | 88 | 1018.5 |
| 20260503022440 | 6 | 116 | 0.0 | 1.6 | 0.00 | 0.15 | 0.15 | 89 | 1018.4 |
| 20260503021940 | 6 | 117 | 0.0 | 3.2 | 0.00 | 0.15 | 0.15 | 89 | 1018.4 |
| 20260503021542 | 6 | 117 | 0.0 | 3.2 | 0.00 | 0.15 | 0.15 | 89 | 1018.4 |
| 20260503021449 | 6 | 117 | 1.6 | 3.2 | 0.00 | 0.15 | 0.15 | 89 | 1018.3 |